Regional Weather Roundup
Issued by NWS

Home | Current Version | Previous Version | Graphics & Text | Print | Product List | Glossary On
Versions: 1 2 3 4 5 6 7 8 9 10 11 12 13 14 15 16 17 18 19 20 21 22 23 24 25 26 27 28 29 30 31 32 33 34 35 36 37 38 39 40 41 42 43 44 45 46 47 48 49 50
000
ASUS45 KBOU 280307
RWRCO

WEATHER ROUNDUP FOR COLORADO
NATIONAL WEATHER SERVICE DENVER/BOULDER CO
900 PM MDT WED MAY 27 2015

NOTE: "FAIR" INDICATES FEW OR NO CLOUDS BELOW 12000 FEET WITH NO
SIGNIFICANT WEATHER AND/OR OBSTRUCTIONS TO VISIBILITY.

COZ001>005-013-030-031-280400-
...NORTHWEST COLORADO...

CITY           SKY/WX    TMP DP  RH WIND       PRES   REMARKS
CRAIG          CLOUDY    55  41  59 W13G24    30.16R
HAYDEN         CLOUDY    54  39  58 NW8       30.15R
MEEKER         CLOUDY    51  43  74 CALM      30.19F
MOUNT WERNER   NOT AVBL
STEAMBOAT SPGS CLOUDY    52  43  70 CALM      30.16R
WALDEN         CLOUDY    43  36  75 SE7       30.21S
$$

COZ006>008-011-280400-
...WEST CENTRAL VALLEYS...

CITY           SKY/WX    TMP DP  RH WIND       PRES   REMARKS
GRAND JUNCTION MOCLDY    60  43  53 N15       30.06S
MONTROSE       PTCLDY    60  42  51 SE8       30.12R
EAGLE          CLOUDY    57  41  54 N6        30.17R
RIFLE          CLOUDY    57  43  59 NW18G25   30.12R
DELTA          PTCLDY    66  41  39 NE3       30.07R
NUCLA          PTCLDY    61  41  48 E9        30.13R
$$

COZ017>023-064>068-280400-
...SOUTHWEST COLORADO...

CITY           SKY/WX    TMP DP  RH WIND       PRES   REMARKS
DURANGO        MOCLDY    64  32  30 NW3       30.12R
CORTEZ         CLEAR     59  43  55 CALM      30.08S
PAGOSA SPRINGS MOCLDY    55  35  47 CALM      30.19S
TELLURIDE      PTCLDY    49  37  65 CALM      30.30S
WOLF CREEK PAS NOT AVBL
$$

COZ009-010-012-014-032>034-037-058>063-280400-
...CENTRAL COLORADO...

CITY           SKY/WX    TMP DP  RH WIND       PRES   REMARKS
ASPEN          LGT RAIN  54  33  45 S20G29    30.19F
BUENA VISTA    CLOUDY    50  34  53 NW17      30.25F
COPPER MTN     SNOW      37  34  87 SW12G21   30.44R VSB 1/2
BERTHOUD PASS  FAIR      32  25  74 NW10G22   30.44S WCI  24
COTTONWOOD PAS CLOUDY    45  32  61 N6        30.33R
GUNNISON       MOCLDY    45  36  70 NE6       30.28R
KREMMLING      MOCLDY    50  37  62 SW5       30.21R
LEADVILLE      CLOUDY    40  32  73 VRB5      30.32S
MONARCH PASS   MOCLDY    34  30  86 W21G26    30.51S WCI  22
SALIDA         CLOUDY    55  37  51 W5        30.29S
SUNLIGHT       MOCLDY    37  34  87 SW3       30.38R
WILKERSON PASS MOCLDY    37  32  81 SW12G22   30.40S
$$

COZ069>075-280400-
...SAN LUIS VALLEY/SANGRE DE CRISTO MOUNTAINS...

CITY           SKY/WX    TMP DP  RH WIND       PRES   REMARKS
ALAMOSA        CLOUDY    54  36  50 N7        30.19R
LA VETA PASS   MOCLDY   N/A N/A N/A MISG      30.32F
SAGUACHE       MOCLDY    50  37  62 NW9       30.23R
$$

COZ035-036-038>040-280400-
...NORTHERN COLORADO FRONT RANGE...

CITY           SKY/WX    TMP DP  RH WIND       PRES   REMARKS
DENVER INTL AP MOCLDY    60  45  57 S10       30.03R
DMNS CITY PARK   N/A     62  44  53 E6        30.04S
AURORA         MOCLDY    61  47  60 E3        30.07R
FRONT RANGE AP MOCLDY    64  50  59 SE6       30.05R
ERIE MUNI ARPT MOCLDY    61  46  58 NW5       30.02S
BOULDER MUN AP MOCLDY    64  41  42 CALM      30.03R
CENTENNIAL     MOCLDY    62  48  60 S5        30.06R
BROOMFIELD     MOCLDY    63  46  55 W8        30.05S
FORT COLLINS   MOCLDY    64  48  55 N8        30.03R
LONGMONT       MOCLDY    65  49  55 NW5       30.04R
$$

COZ041-046-047-076>085-087-088-280400-
...PIKES PEAK/PALMER DIVIDE AND SOUTHERN FOOTHILLS...

CITY           SKY/WX    TMP DP  RH WIND       PRES   REMARKS
COLO. SPRINGS  MOCLDY    61  42  49 E9        30.08R
A. F. ACADEMY  PTCLDY    62  37  38 N3        30.10R
ELLICOTT       MOCLDY   N/A N/A N/A S10       30.09S
FALCON         MOCLDY    57  44  60 NE5       30.14R
FORT CARSON    MOCLDY    61  40  45 SW16      30.05R
LIMON          CLOUDY    54  50  86 SE6       30.06S
MONUMENT HILL  PTCLDY    52  45  76 E6        30.14S
TRINIDAD       LGT RAIN  59  45  59 NW12      30.09R
$$

COZ042>045-048>051-090-091-280400-
...NORTHEAST COLORADO...

CITY           SKY/WX    TMP DP  RH WIND       PRES   REMARKS
GREELEY ARPT   MOCLDY    64  54  68 N12       30.02R
AKRON          MOCLDY    61  55  81 SE18G30   30.04R
BURLINGTON     CLOUDY    60  54  80 SE20      30.06R
WRAY           PTCLDY    61  54  78 E17G24    30.05S
STERLING       MOCLDY    61  55  82 SE21      30.00F
HOLYOKE        PTCLDY    59  54  82 SE20      30.05S
FORT MORGAN    MOCLDY    61  56  82 E13       30.01F
$$

COZ086-089-092>099-280400-
...SOUTHEAST COLORADO...

CITY           SKY/WX    TMP DP  RH WIND       PRES   REMARKS
PUEBLO         MOCLDY    62  52  69 VRB6      30.02R
LA JUNTA       CLOUDY    69  49  48 W3        30.00S
LAMAR          MOCLDY    65  51  60 E13       30.00R
SPRINGFIELD      N/A     60  53  77 SE16      30.04R
$$


USA.gov is the U.S. government's official web portal to all federal, state and local government web resources and services.